Location: Kuppenheim
(48.8299°N, 8.2568°E)
Time: 09:32:12
(UTC+00:00)

Cosmos 841 Rocket - Pass Details

Date: 20 June 2021
Orbit: 747 x 772 km, 74.0° (Epoch: 27 July)

Event Time Altitude Azimuth Distance (km) Brightness Sun altitude
Exits shadow 00:23:04 23° 160° (SSE) 1,560 4.6 -16.7°
Maximum altitude 00:25:46 41° 104° (ESE) 1,081 4.2 -16.6°
Drops below altitude 10° 00:30:34 10° 36° (NE) 2,275 7.1 -16.4°
Sets 00:33:02 0° 29° (NNE) 3,203 8.3 -16.3°
